Retour au catalogue

STARLINK-11235

ActifCommunicationsVLEO
NORAD 60726·PAYLOAD·🇺🇸 United States

Lancé Aug 28, 2024 depuis Cape Canaveral Space Force Station

Loading…

Prochains Passages (prochaines 24 heures)

TLE

FraisSource: CelesTrak SupGP

Époque: Sep 15, 2026, 01:55 UTC

1 60726C 24152G   26258.08034722  .00047392  00000+0  38995-3 0  2583
2 60726  53.1574 262.6023 0001117  97.1949 180.7651 15.69712739    17

Suivez STARLINK-11235 en temps réel avec AllMySat

Download on the App Store